• In Hungary
  • List of Countries
  • For 7 days
  • Water Temperature
  • Satellite Maps
  • Weather Map
  • News
  • Weather Widgets
  • user-avatar
    Login

    Hourly Weather Samos

    Today, 14 November, Wednesday

    Time Temperature Precipitation Wind Pressure Humidity
    00:00 +6°C° 0 mm 8 mps 724 mmHg 66%
    01:00 +6°C° 0 mm 8 mps 723 mmHg 68%
    02:00 +5°C° 0 mm 8 mps 723 mmHg 70%
    03:00 +5°C° 0 mm 8 mps 723 mmHg 72%
    04:00 +5°C° 0 mm 8 mps 723 mmHg 74%
    05:00 +4°C° 0 mm 8 mps 723 mmHg 76%
    06:00 +5°C° 0 mm 8 mps 723 mmHg 73%
    07:00 +5°C° 0 mm 8 mps 723 mmHg 71%
    08:00 +5°C° 0 mm 8 mps 723 mmHg 67%
    09:00 +7°C° 0 mm 8 mps 723 mmHg 59%
    10:00 +10°C° 0 mm 8 mps 723 mmHg 51%
    11:00 +12°C° 0 mm 9 mps 723 mmHg 43%
    12:00 +13°C° 0 mm 9 mps 723 mmHg 39%
    13:00 +15°C° 0 mm 8 mps 722 mmHg 35%
    14:00 +16°C° 0 mm 8 mps 722 mmHg 30%
    15:00 +15°C° 0 mm 8 mps 722 mmHg 33%
    16:00 +13°C° 0 mm 8 mps 722 mmHg 36%
    17:00 +11°C° 0 mm 8 mps 722 mmHg 39%
    18:00 +10°C° 0 mm 8 mps 722 mmHg 44%
    19:00 +9°C° 0 mm 8 mps 722 mmHg 49%
    20:00 +7°C° 0 mm 8 mps 722 mmHg 54%
    21:00 +6°C° 0 mm 8 mps 721 mmHg 59%
    22:00 +6°C° 0 mm 8 mps 721 mmHg 63%
    23:00 +5°C° 0 mm 8 mps 721 mmHg 68%

    Tomorrow, 15 November, Thursday

    Time Temperature Precipitation Wind Pressure Humidity
    00:00 +5°C° 0 mm 8 mps 721 mmHg 71%
    01:00 +4°C° 0 mm 8 mps 721 mmHg 74%
    02:00 +4°C° 0 mm 8 mps 721 mmHg 76%
    03:00 +2°C° 0 mm 8 mps 721 mmHg 78%
    04:00 +2°C° 0 mm 8 mps 721 mmHg 79%
    05:00 +2°C° 0 mm 8 mps 720 mmHg 80%
    06:00 +2°C° 0 mm 8 mps 721 mmHg 78%
    07:00 +4°C° 0 mm 8 mps 721 mmHg 75%
    08:00 +4°C° 0 mm 8 mps 721 mmHg 73%
    09:00 +6°C° 0 mm 8 mps 721 mmHg 63%
    10:00 +9°C° 0 mm 8 mps 721 mmHg 53%
    11:00 +11°C° 0 mm 7 mps 721 mmHg 44%
    12:00 +12°C° 0 mm 8 mps 721 mmHg 41%
    13:00 +12°C° 0 mm 8 mps 721 mmHg 38%
    14:00 +13°C° 0 mm 9 mps 721 mmHg 36%
    15:00 +12°C° 0 mm 8 mps 721 mmHg 40%
    16:00 +11°C° 0 mm 8 mps 721 mmHg 45%
    17:00 +9°C° 0 mm 8 mps 721 mmHg 50%
    18:00 +7°C° 0 mm 8 mps 721 mmHg 57%
    19:00 +6°C° 0 mm 8 mps 722 mmHg 63%
    20:00 +5°C° 0 mm 8 mps 722 mmHg 70%
    21:00 +5°C° 0 mm 8 mps 722 mmHg 73%
    22:00 +4°C° 0 mm 8 mps 722 mmHg 75%
    23:00 +4°C° 0 mm 8 mps 722 mmHg 78%

    Day after tomorrow, 16 November, Friday

    Time Temperature Precipitation Wind Pressure Humidity
    00:00 +4°C° 0 mm 8 mps 722 mmHg 79%
    01:00 +3°C° 0 mm 7 mps 723 mmHg 79%
    02:00 +3°C° 0 mm 7 mps 723 mmHg 80%
    03:00 +3°C° 0 mm 7 mps 723 mmHg 81%
    04:00 +3°C° 0 mm 7 mps 723 mmHg 83%
    05:00 +2°C° 0 mm 6 mps 723 mmHg 84%
    06:00 +3°C° 0 mm 6 mps 723 mmHg 82%
    07:00 +3°C° 0 mm 6 mps 724 mmHg 81%
    08:00 +4°C° 0 mm 6 mps 724 mmHg 79%
    09:00 +5°C° 0 mm 6 mps 724 mmHg 70%
    10:00 +8°C° 0 mm 6 mps 724 mmHg 61%
    11:00 +10°C° 0 mm 6 mps 724 mmHg 51%
    12:00 +11°C° 0 mm 6 mps 724 mmHg 48%
    13:00 +12°C° 0 mm 5 mps 724 mmHg 44%
    14:00 +13°C° 0 mm 5 mps 724 mmHg 40%
    15:00 +12°C° 0 mm 5 mps 724 mmHg 42%
    16:00 +10°C° 0 mm 5 mps 724 mmHg 44%
    17:00 +10°C° 0 mm 5 mps 724 mmHg 46%
    18:00 +9°C° 0 mm 5 mps 724 mmHg 49%
    19:00 +8°C° 0 mm 6 mps 724 mmHg 52%
    20:00 +8°C° 0 mm 6 mps 725 mmHg 54%
    21:00 +7°C° 0 mm 5 mps 725 mmHg 57%
    22:00 +7°C° 0 mm 5 mps 725 mmHg 60%
    23:00 +6°C° 0 mm 5 mps 725 mmHg 63%

    17 November, Saturday

    Time Temperature Precipitation Wind Pressure Humidity
    00:00 +6°C° 0 mm 5 mps 725 mmHg 63%
    01:00 +6°C° 0 mm 5 mps 725 mmHg 63%
    02:00 +6°C° 0 mm 4 mps 725 mmHg 64%
    03:00 +6°C° 0 mm 4 mps 725 mmHg 63%
    04:00 +6°C° 0 mm 5 mps 725 mmHg 63%
    05:00 +6°C° 0 mm 5 mps 725 mmHg 63%
    06:00 +6°C° 0 mm 5 mps 725 mmHg 62%
    07:00 +6°C° 0 mm 4 mps 725 mmHg 61%
    08:00 +6°C° 0 mm 4 mps 726 mmHg 60%
    09:00 +8°C° 0 mm 4 mps 726 mmHg 53%
    10:00 +11°C° 0 mm 4 mps 726 mmHg 46%
    11:00 +13°C° 0 mm 4 mps 726 mmHg 39%
    12:00 +13°C° 0 mm 3 mps 726 mmHg 37%
    13:00 +14°C° 0 mm 3 mps 725 mmHg 34%
    14:00 +16°C° 0 mm 3 mps 725 mmHg 32%
    15:00 +14°C° 0.1 mm 3 mps 725 mmHg 35%
    16:00 +13°C° 0.1 mm 3 mps 725 mmHg 37%
    17:00 +12°C° 0.1 mm 3 mps 725 mmHg 40%
    18:00 +11°C° 0.3 mm 3 mps 725 mmHg 42%
    19:00 +11°C° 0.3 mm 4 mps 725 mmHg 44%
    20:00 +11°C° 0.3 mm 4 mps 725 mmHg 47%
    21:00 +9°C° 0.9 mm 5 mps 725 mmHg 54%
    22:00 +8°C° 0.9 mm 5 mps 725 mmHg 61%
    23:00 +7°C° 0.9 mm 6 mps 725 mmHg 68%

    18 November, Sunday

    Time Temperature Precipitation Wind Pressure Humidity
    00:00 +7°C° 1.1 mm 6 mps 725 mmHg 71%
    01:00 +7°C° 1.1 mm 6 mps 724 mmHg 74%
    02:00 +7°C° 1.1 mm 6 mps 724 mmHg 77%
    03:00 +7°C° 0.8 mm 6 mps 724 mmHg 78%
    04:00 +7°C° 0.8 mm 6 mps 724 mmHg 78%
    05:00 +7°C° 0.8 mm 6 mps 723 mmHg 79%
    06:00 +7°C° 0.3 mm 6 mps 723 mmHg 79%
    07:00 +7°C° 0.3 mm 6 mps 724 mmHg 80%
    08:00 +7°C° 0.3 mm 6 mps 724 mmHg 80%
    09:00 +7°C° 0.2 mm 6 mps 724 mmHg 79%
    10:00 +8°C° 0.2 mm 5 mps 724 mmHg 78%
    11:00 +8°C° 0.2 mm 5 mps 724 mmHg 77%
    12:00 +9°C° 0.5 mm 5 mps 723 mmHg 76%
    13:00 +9°C° 0.5 mm 5 mps 723 mmHg 76%
    14:00 +10°C° 0.5 mm 5 mps 722 mmHg 75%
    15:00 +10°C° 0.9 mm 5 mps 722 mmHg 79%
    16:00 +10°C° 0.9 mm 4 mps 722 mmHg 82%
    17:00 +10°C° 0.9 mm 4 mps 721 mmHg 85%
    18:00 +10°C° 1.1 mm 4 mps 721 mmHg 86%
    19:00 +10°C° 1.1 mm 4 mps 721 mmHg 88%
    20:00 +10°C° 1.1 mm 3 mps 721 mmHg 89%
    21:00 +10°C° 0.6 mm 3 mps 721 mmHg 90%
    22:00 +10°C° 0.6 mm 3 mps 721 mmHg 90%
    23:00 +10°C° 0.6 mm 2 mps 720 mmHg 90%

    19 November, Monday

    Time Temperature Precipitation Wind Pressure Humidity
    00:00 +10°C° 0.4 mm 2 mps 720 mmHg 91%
    01:00 +10°C° 0.4 mm 2 mps 720 mmHg 91%
    02:00 +10°C° 0.4 mm 2 mps 720 mmHg 92%
    03:00 +10°C° 0 mm 2 mps 720 mmHg 92%
    04:00 +9°C° 0 mm 2 mps 719 mmHg 93%
    05:00 +9°C° 0 mm 2 mps 719 mmHg 93%
    06:00 +11°C° 0 mm 1 mps 719 mmHg 92%
    07:00 +11°C° 0 mm 1 mps 719 mmHg 91%
    08:00 +11°C° 0 mm 1 mps 719 mmHg 90%
    09:00 +13°C° 0 mm 1 mps 719 mmHg 84%
    10:00 +14°C° 0 mm 1 mps 719 mmHg 77%
    11:00 +16°C° 0 mm 2 mps 719 mmHg 71%
    12:00 +16°C° 0 mm 2 mps 719 mmHg 69%
    13:00 +17°C° 0 mm 3 mps 718 mmHg 67%
    14:00 +18°C° 0 mm 3 mps 718 mmHg 65%
    15:00 +17°C° 0.1 mm 3 mps 718 mmHg 70%
    16:00 +16°C° 0.1 mm 3 mps 718 mmHg 76%
    17:00 +14°C° 0.1 mm 4 mps 718 mmHg 81%
    18:00 +13°C° 0.4 mm 4 mps 718 mmHg 83%
    19:00 +13°C° 0.4 mm 5 mps 718 mmHg 85%
    20:00 +12°C° 0.4 mm 5 mps 717 mmHg 88%
    21:00 +11°C° 0.3 mm 6 mps 717 mmHg 88%
    22:00 +11°C° 0.3 mm 6 mps 717 mmHg 88%
    23:00 +11°C° 0.3 mm 6 mps 717 mmHg 89%
    Show more